Flag for Sweden Weather past 2 weeks in Malmö, Sweden

Now
72 °F

Scattered clouds.


Feels Like: 76 °F
Forecast: 63 / 75 °F
Wind: 14 mph from West

Location: Malmo / Sturup

Current Time: Jul 31, 2014 at 1:09:44 PM

Latest Report: Jul 31, 2014 at 12:20 PM


Visibility: N/A

Pressure: 29.86 "Hg

Humidity: 61%

Dew point: 57 °F

Location of MalmöLocation

Historic Weather in Malmö — Graph

°F

Malmö temperature yesterday

Maximum temperature yesterday: 70 °F (at 11:50 AM)
Minimum temperature yesterday: 59 °F (at 11:20 PM)
Average temperature yesterday: 66 °F

Past Weeks' High & Low Weather Summary

 TemperatureHumidityPressure
High84 °F (Jul 28, 11:50 AM)100% (Jul 17, 1:20 AM)30.24 "Hg (Jul 17, 1:20 AM)
Low50 °F (Jul 17, 2:20 AM)36% (Jul 23, 12:20 PM)29.71 "Hg (Jul 30, 4:20 AM)
Average69 °F71%30.03 "Hg
* Reported Jul 16 11:20 AM — Jul 31 11:50 AM, Malmö, Weather by CustomWeather, © 2014

Note: Actual official high and low records may vary slightly from our data, if they occured in-between our weather recording intervals... More about our weather records

Advertising

Malmö weather history for previous 24 hours

 ConditionsComfort  
Time TempWeatherWind HumidityBarometerVisibility
11:50 AM
Jul 31
70 °FScattered clouds.14 mph60%29.86 "HgN/A
11:20 AM70 °FScattered clouds.14 mph60%29.86 "HgN/A
10:50 AM70 °FScattered clouds.12 mph64%29.86 "HgN/A
10:20 AM68 °FScattered clouds.15 mph69%29.86 "HgN/A
9:50 AM68 °FScattered clouds.12 mph69%29.86 "HgN/A
9:20 AM68 °FScattered clouds.13 mph69%29.86 "HgN/A
8:50 AM66 °FScattered clouds.12 mph73%29.86 "HgN/A
8:20 AM66 °FScattered clouds.10 mph78%29.83 "HgN/A
7:50 AM64 °FPassing clouds.9 mph83%29.83 "HgN/A
7:20 AM64 °FSunny.8 mph83%29.83 "Hg10 mi
6:50 AM63 °FSunny.7 mph88%29.83 "Hg10 mi
6:20 AM61 °FSunny.6 mph94%29.83 "Hg10 mi
5:50 AM61 °FClear.6 mph88%29.83 "Hg10 mi
5:20 AM61 °FClear.5 mph88%29.80 "Hg10 mi
4:50 AM61 °FClear.6 mph88%29.80 "Hg10 mi
4:20 AM63 °FClear.7 mph83%29.80 "Hg10 mi
3:50 AM63 °FClear.8 mph83%29.80 "Hg10 mi
3:20 AM63 °FClear.7 mph83%29.80 "Hg10 mi
2:50 AM63 °FClear.7 mph83%29.80 "Hg10 mi
2:20 AM63 °FClear.7 mph83%29.80 "Hg10 mi
1:50 AM63 °FClear.7 mph88%29.77 "Hg10 mi
1:20 AM59 °FClear.2 mph94%29.77 "Hg10 mi
12:50 AM59 °FClear.3 mph94%29.77 "Hg10 mi
12:20 AM63 °FClear.6 mph83%29.77 "Hg10 mi
11:50 PM
Jul 30
61 °FClear.5 mph94%29.77 "Hg10 mi
11:20 PM59 °FClear.3 mph100%29.77 "Hg10 mi
10:50 PM61 °FClear.2 mph94%29.77 "Hg10 mi
10:20 PM63 °FClear.3 mph88%29.77 "Hg10 mi
9:50 PM64 °FSunny.3 mph83%29.77 "Hg10 mi
9:20 PM66 °FSunny.6 mph78%29.77 "Hg10 mi
8:50 PM68 °FSunny.7 mph78%29.77 "Hg10 mi
8:20 PM68 °FSunny.5 mph88%29.77 "Hg10 mi
7:50 PM68 °FSunny.6 mph88%29.77 "Hg10 mi
7:20 PM68 °FPassing clouds.3 mph88%29.77 "HgN/A
6:50 PM68 °FLight rain. Clear.6 mph88%29.77 "HgN/A
6:20 PM68 °FLight rain. Partly sunny.7 mph88%29.77 "HgN/A
5:50 PM70 °FPartly sunny.8 mph83%29.77 "HgN/A
5:20 PM68 °FSunny.8 mph83%29.77 "Hg10 mi
4:50 PM68 °FSunny.9 mph83%29.77 "Hg10 mi
4:20 PM68 °FSunny.10 mph83%29.77 "Hg10 mi
3:50 PM68 °FSunny.9 mph83%29.77 "Hg10 mi
3:20 PM68 °FSunny.10 mph78%29.77 "Hg10 mi
2:50 PM68 °FSunny.15 mph78%29.77 "Hg10 mi
2:20 PM68 °FPassing clouds.13 mph94%29.77 "HgN/A
1:50 PM68 °FScattered clouds.12 mph83%29.77 "HgN/A
1:20 PM68 °FLight rain. Partly sunny.10 mph83%29.77 "HgN/A
Weather by CustomWeather, © 2014

See weather overviewHow to use our weather pages